[[{"header":{"parameterUnit":"m.s-1","parameterCategory":1,"la1":30.2991,"la2":30.254,"lo1":-89.0895,"lo2":-89.0444,"dy":0.0017,"dx":0.0017,"nx":28,"ny":28,"refTime":"2024-08-15T03:00:00:Z","depth":0,"parameterNumber":2,"parameterNumberName":"U-component_of_WINDS"},"data":[0,0,0,0,0,0,0,0,0,0,0,0,0,0,0,0,0,0,0,0,0,0,0,0,0,0,0,0,0,0,0,0,0,0,0,0,0,0,0,0,0,0,0,0,0,0,0,0,0,0,0,0,0,0,0,0,0,0,-2.8481,-2.8481,0,-2.8475,-2.8475,-2.8475,-2.8421,-2.842,-2.8419,-2.8417,-2.841,-2.8411,-2.8412,0,0,0,0,0,0,0,0,0,0,0,0,0,-2.8448,-2.8449,-2.8481,-2.8481,-2.8481,-2.8475,-2.8475,-2.8475,-2.8421,-2.842,-2.8418,-2.8417,-2.841,-2.8411,-2.8412,0,0,0,0,0,0,0,0,0,0,0,0,0,-2.8454,-2.845,-2.8481,-2.8454,-2.8451,-2.8475,-2.8475,-2.8475,-2.8422,-2.842,-2.8418,-2.8416,-2.8409,-2.8411,-2.8412,-2.8462,0,0,-2.8417,-2.8418,0,0,0,0,0,0,0,0,-2.8454,-2.8456,-2.8458,-2.8456,-2.8453,-2.8447,-2.8461,-2.847,-2.8422,-2.8433,-2.8417,-2.8415,-2.8424,-2.8424,-2.8427,-2.8462,-2.8461,-2.8417,-2.8418,-2.8419,-2.8419,0,0,0,0,0,0,0,-2.8454,-2.8456,-2.8479,-2.8458,-2.8455,-2.8442,-2.8441,-2.8462,-2.844,-2.8432,-2.8428,-2.8428,-2.8422,-2.8426,-2.8427,-2.8461,-2.8417,-2.8419,-2.842,-2.842,-2.8537,-2.8539,0,0,0,0,0,0,-2.8457,-2.8456,-2.8479,-2.8479,-2.8449,-2.8444,-2.8443,-2.8451,-2.8439,-2.8436,-2.843,-2.8426,-2.8424,-2.8425,-2.8426,-2.8483,-2.8419,-2.842,-2.8421,-2.8535,-2.8537,-2.854,0,0,0,0,0,0,-2.8457,-2.846,-2.8479,-2.8466,-2.8468,-2.8447,-2.8456,-2.8452,-2.8455,-2.8438,-2.8433,-2.8438,-2.8423,-2.8424,-2.8454,-2.8482,-2.8421,-2.8423,-2.8532,-2.8536,-2.8538,-2.8598,0,0,0,0,0,0,-2.8456,-2.846,-2.8478,-2.8467,-2.8469,-2.8506,-2.8458,-2.8453,-2.8458,-2.8453,-2.8444,-2.844,-2.8421,-2.8452,-2.8455,-2.8483,-2.8424,-2.8529,-2.8534,-2.8537,-2.8593,-2.8603,-2.8611,0,0,0,0,0,-2.8455,-2.8494,-2.8479,-2.8482,-2.8491,-2.8508,-2.8509,-2.8486,-2.8461,-2.8479,-2.8468,-2.8441,-2.8479,-2.8455,-2.8459,-2.8488,-2.8527,-2.8532,-2.8537,-2.8589,-2.8601,-2.8611,0,0,0,0,0,0,-2.8508,-2.8492,-2.8475,-2.8512,-2.8512,-2.8499,-2.8521,-2.8499,-2.8506,-2.85,-2.8472,-2.8471,-2.8504,-2.8499,-2.8473,-2.8536,-2.8499,-2.8505,-2.8537,-2.8548,-2.8557,-2.8556,-2.8425,0,0,0,0,0,-2.8525,-2.854,-2.8526,-2.856,-2.8561,-2.8542,-2.8548,-2.8531,-2.8529,-2.8529,-2.852,-2.852,-2.8532,-2.854,-2.855,-2.8593,-2.8591,-2.8615,-2.8624,-2.8631,-2.8636,-2.8659,-2.867,-2.8556,-2.8556,-2.8555,0,0,-2.8558,-2.8551,-2.8562,-2.857,-2.8568,-2.8585,-2.8541,-2.8561,-2.8573,-2.8532,-2.8559,-2.8553,-2.8551,-2.8588,-2.8603,-2.8584,-2.8668,-2.8638,-2.8644,-2.8644,-2.8665,-2.8676,-2.8686,-2.8559,-2.8558,-2.8558,0,0,-2.8626,-2.8623,-2.8652,-2.8651,-2.8649,-2.8636,-2.8644,-2.8635,-2.8629,-2.8656,-2.8626,-2.8641,-2.8662,-2.8662,-2.8665,-2.8737,-2.8712,-2.8742,-2.8787,-2.881,-2.8818,-2.8826,-2.8851,-2.8861,-2.8747,-2.8747,-2.8747,0,-2.8667,-2.8691,-2.8669,-2.8691,-2.8695,-2.8661,-2.8689,-2.869,-2.8691,-2.8695,-2.8675,-2.8702,-2.8698,-2.8734,-2.8752,-2.8756,-2.8763,-2.8741,-2.8819,-2.8827,-2.8834,-2.8857,-2.8867,-2.8751,-2.875,-2.875,-2.875,0,-2.8742,-2.876,-2.8783,-2.8786,-2.8794,-2.8819,-2.8801,-2.8811,-2.8795,-2.8785,-2.8814,-2.8809,-2.8817,-2.8825,-2.8809,-2.886,-2.8848,-2.8824,-2.8786,-2.8848,-2.887,-2.8879,-2.8756,-2.8754,-2.8753,-2.8752,0,0,-2.884,-2.8833,-2.8842,-2.8843,-2.884,-2.8853,-2.8878,-2.8887,-2.8897,-2.89,-2.892,-2.894,-2.8918,-2.8922,-2.8906,-2.8926,-2.8983,-2.8899,-2.8899,-2.8914,-2.9039,-2.9056,-2.9067,-2.8968,-2.897,-2.8971,-2.9039,0,-2.8905,-2.8946,-2.8928,-2.8971,-2.8987,-2.8957,-2.8978,-2.8979,-2.8971,-2.8984,-2.8976,-2.899,-2.8961,-2.8962,-2.8982,-2.8972,-2.9008,-2.8968,-2.8986,-2.8986,-2.8985,-2.9078,-2.9096,-2.916,-2.9048,-2.9049,-2.905,0,-2.8985,-2.8993,-2.9038,-2.9034,-2.904,-2.906,-2.9068,-2.9081,-2.9082,-2.9075,-2.908,-2.906,-2.9084,-2.9049,-2.9082,-2.9055,-2.9062,-2.906,-2.9062,-2.906,-2.902,-2.9078,-2.918,-2.9189,-2.9063,-2.9062,-2.9061,0,-2.9051,-2.9073,-2.9103,-2.9106,-2.9101,-2.9116,-2.9115,-2.9114,-2.9122,-2.9129,-2.9134,-2.9144,-2.9149,-2.9158,-2.9142,-2.9118,-2.9177,-2.914,-2.9172,-2.9172,-2.9183,-2.9182,-2.9285,-2.9191,-2.9191,-2.9191,-2.9191,0,-2.9124,-2.9153,-2.9133,-2.9151,-2.9182,-2.9162,-2.9194,-2.919,-2.919,-2.9207,-2.9182,-2.9198,-2.9177,-2.9191,-2.9179,-2.9208,-2.9211,-2.9206,-2.9202,-2.9207,-2.9208,-2.9209,-2.9204,-2.9194,-2.9193,-2.9193,-2.9192,0,-2.9201,-2.9189,-2.9219,-2.9214,-2.9214,-2.9237,-2.9233,-2.925,-2.9242,-2.9264,-2.9268,-2.9255,-2.9271,-2.9257,-2.9272,-2.9264,-2.9303,-2.9293,-2.9302,-2.9299,-2.933,-2.9327,-2.9436,-2.945,-2.9349,-2.935,-2.9351,0,-2.9247,-2.9269,-2.9267,-2.9277,-2.9278,-2.9294,-2.9302,-2.9285,-2.9294,-2.9299,-2.9315,-2.933,-2.934,-2.9368,-2.9359,-2.9372,-2.9361,-2.9399,-2.9362,-2.9367,-2.936,-2.9358,-2.936,-2.9405,-2.9406,-2.9407,-2.9408,0,-2.933,-2.9324,-2.9337,-2.9349,-2.9359,-2.9367,-2.9373,-2.9383,-2.9365,-2.9378,-2.9394,-2.9403,-2.942,-2.9434,-2.9444,-2.9443,-2.9423,-2.9421,-2.9428,-2.9432,-2.9436,-2.9433,-2.932,-2.9417,-2.9416,-2.9416,-2.9415,-2.9415,-2.9392,-2.941,-2.9412,-2.9428,-2.9431,-2.9438,-2.9454,-2.9449,-2.9463,-2.9476,-2.9465,-2.9486,-2.9488,-2.9499,-2.9502,-2.9517,-2.9501,-2.9513,-2.9515,-2.9518,-2.9522,-2.9436,-2.9519,-2.9519,-2.9519,-2.9519,-2.9518,0,-2.9472,-2.9473,-2.9488,-2.9498,-2.9511,-2.9493,-2.95,-2.9511,-2.953,-2.9534,-2.9546,-2.9566,-2.9581,-2.9576,-2.9589,-2.9603,-2.9594,-2.9607,-2.9604,-2.9604,-2.9536,-2.9527,-2.9614,-2.9614,-2.9614,-2.9614,-2.9614,-2.9613,-2.9515,-2.9545,-2.954,-2.9572,-2.9572,-2.9592,-2.9598,-2.9604,-2.9608,-2.9632,-2.9645,-2.9642,-2.9642,-2.9656,-2.9669,-2.9667,-2.9672,-2.9689,-2.9683,-2.9618,-2.9609,-2.96,-2.9592,-2.969,-2.969,-2.975,-2.9751,-2.9751]},{"header":{"parameterUnit":"m.s-1","parameterCategory":1,"la1":30.2991,"la2":30.254,"lo1":-89.0895,"lo2":-89.0444,"dy":0.0017,"dx":0.0017,"nx":28,"ny":28,"refTime":"2024-08-15T03:00:00:Z","depth":0,"parameterNumber":3,"parameterNumberName":"V-component_of_WINDS"},"data":[0,0,0,0,0,0,0,0,0,0,0,0,0,0,0,0,0,0,0,0,0,0,0,0,0,0,0,0,0,0,0,0,0,0,0,0,0,0,0,0,0,0,0,0,0,0,0,0,0,0,0,0,0,0,0,0,0,0,2.2744,2.2744,0,2.278,2.278,2.2781,2.2863,2.2865,2.2867,2.2868,2.2901,2.2901,2.29,0,0,0,0,0,0,0,0,0,0,0,0,0,2.2743,2.2743,2.2744,2.2744,2.2745,2.278,2.278,2.2781,2.2863,2.2865,2.2867,2.2869,2.2902,2.2901,2.29,0,0,0,0,0,0,0,0,0,0,0,0,0,2.2758,2.2743,2.2744,2.279,2.2795,2.278,2.278,2.2781,2.2862,2.2865,2.2868,2.287,2.2902,2.2901,2.29,2.2842,0,0,2.2897,2.2896,0,0,0,0,0,0,0,0,2.2757,2.2757,2.2783,2.2787,2.2792,2.282,2.2792,2.2801,2.2862,2.2836,2.2868,2.2871,2.2872,2.2874,2.2875,2.2843,2.2845,2.2897,2.2896,2.2895,2.2895,0,0,0,0,0,0,0,2.2756,2.2756,2.2758,2.2783,2.2789,2.2808,2.2813,2.2794,2.2839,2.2839,2.2845,2.2848,2.2875,2.2875,2.2876,2.2845,2.2897,2.2896,2.2895,2.2895,2.2767,2.2765,0,0,0,0,0,0,2.2748,2.2755,2.2757,2.2759,2.278,2.2806,2.2811,2.2808,2.284,2.2847,2.2846,2.2852,2.2876,2.2877,2.2877,2.281,2.2895,2.2894,2.2894,2.277,2.2767,2.2764,0,0,0,0,0,0,2.2748,2.2748,2.2756,2.2759,2.2761,2.2803,2.2799,2.2807,2.2808,2.2845,2.2853,2.2838,2.2878,2.2879,2.285,2.2813,2.2894,2.2893,2.2773,2.2769,2.2765,2.2676,0,0,0,0,0,0,2.2748,2.2747,2.2726,2.2758,2.2761,2.2728,2.2797,2.2806,2.2806,2.2814,2.284,2.2847,2.288,2.2851,2.2849,2.2813,2.2892,2.2777,2.2771,2.2766,2.2682,2.2669,2.2658,0,0,0,0,0,2.2747,2.2699,2.2725,2.2724,2.2736,2.2726,2.2728,2.2768,2.2803,2.2782,2.2806,2.2846,2.2817,2.2848,2.2846,2.2808,2.2779,2.2773,2.2767,2.2688,2.2672,2.2658,0,0,0,0,0,0,2.2661,2.2704,2.2733,2.2694,2.2706,2.274,2.2714,2.275,2.2751,2.2758,2.2807,2.2812,2.2776,2.279,2.2823,2.2753,2.2805,2.2798,2.2745,2.2731,2.2719,2.2715,2.2891,0,0,0,0,0,2.2638,2.2627,2.2665,2.2627,2.2632,2.2672,2.2669,2.2699,2.2713,2.2718,2.274,2.275,2.2744,2.2738,2.2735,2.2686,2.2691,2.2659,2.2647,2.2637,2.2629,2.2603,2.2588,2.2743,2.2743,2.2743,0,0,2.2589,2.2611,2.2601,2.261,2.2623,2.261,2.2675,2.2659,2.2649,2.2715,2.2689,2.2705,2.272,2.2681,2.2664,2.2691,2.2588,2.2629,2.262,2.2619,2.2595,2.258,2.2567,2.2739,2.274,2.2741,0,0,2.2493,2.2509,2.2479,2.249,2.2509,2.2536,2.2529,2.2558,2.2571,2.2546,2.2595,2.2584,2.2572,2.258,2.2583,2.249,2.2526,2.2487,2.2423,2.2397,2.2384,2.2374,2.2339,2.2326,2.2481,2.248,2.248,0,2.2429,2.2412,2.2458,2.2438,2.244,2.2501,2.2469,2.2478,2.2494,2.2493,2.2523,2.2509,2.2524,2.2486,2.2463,2.2464,2.2456,2.2484,2.2383,2.2372,2.2363,2.233,2.2317,2.2475,2.2476,2.2476,2.2477,0,2.2332,2.2319,2.2292,2.2307,2.2306,2.228,2.2321,2.2314,2.2345,2.2368,2.2341,2.2361,2.2361,2.2355,2.2384,2.2321,2.2337,2.2374,2.2426,2.2343,2.2312,2.23,2.2468,2.247,2.2471,2.2473,0,0,2.2181,2.2222,2.2211,2.2218,2.2243,2.2234,2.221,2.2212,2.2204,2.2214,2.2194,2.2183,2.2217,2.222,2.2251,2.2228,2.215,2.2268,2.2269,2.2243,2.208,2.205,2.2035,2.2176,2.2174,2.2172,2.2078,0,2.2089,2.2052,2.2093,2.2047,2.2035,2.2093,2.2072,2.2084,2.2106,2.2098,2.2121,2.2112,2.2159,2.2161,2.2141,2.2164,2.2118,2.2172,2.2156,2.2155,2.2148,2.2019,2.1988,2.1898,2.2067,2.2065,2.2063,0,2.1976,2.1981,2.1934,2.1962,2.1958,2.1939,2.1943,2.1936,2.1951,2.1968,2.1971,2.2008,2.1986,2.2038,2.2007,2.2043,2.2039,2.2049,2.2047,2.2045,2.2102,2.2012,2.1871,2.1856,2.2045,2.2047,2.2048,0,2.1868,2.1863,2.1834,2.1838,2.187,2.1855,2.1867,2.1885,2.1883,2.1887,2.1886,2.1887,2.1886,2.1885,2.1921,2.1957,2.1885,2.1941,2.1896,2.1895,2.1877,2.1877,2.1731,2.1878,2.1878,2.1878,2.1878,0,2.176,2.1728,2.1785,2.1767,2.1733,2.178,2.1744,2.1763,2.1778,2.1763,2.1814,2.1799,2.1848,2.1838,2.1866,2.1835,2.1835,2.1846,2.1854,2.1841,2.1839,2.1837,2.1843,2.1875,2.1875,2.1876,2.1877,0,2.1632,2.1669,2.1641,2.1674,2.1682,2.1655,2.1683,2.1667,2.1692,2.1672,2.1671,2.1709,2.17,2.1736,2.1733,2.1752,2.1704,2.1723,2.1699,2.1704,2.1657,2.166,2.1503,2.1484,2.1645,2.1643,2.1642,0,2.1559,2.1537,2.1568,2.1562,2.1572,2.1562,2.1561,2.1606,2.1602,2.1618,2.1599,2.1594,2.1592,2.1574,2.1601,2.1598,2.1616,2.1561,2.1616,2.1603,2.1612,2.1612,2.1609,2.1549,2.1547,2.1545,2.1544,0,2.1426,2.1445,2.1442,2.1445,2.1442,2.1446,2.1453,2.1445,2.1495,2.1487,2.1479,2.1477,2.1474,2.1468,2.1471,2.1482,2.152,2.1527,2.1516,2.1501,2.1487,2.1492,2.1666,2.153,2.1531,2.1532,2.1533,2.1533,2.1322,2.1304,2.1323,2.1317,2.1328,2.1333,2.1319,2.1343,2.1337,2.1339,2.1366,2.1352,2.1367,2.1375,2.1382,2.1371,2.1396,2.1381,2.1377,2.1372,2.1363,2.1491,2.1372,2.1372,2.1373,2.1373,2.1373,0,2.1189,2.1204,2.1199,2.1208,2.1203,2.1242,2.1252,2.1244,2.1231,2.1243,2.124,2.123,2.1224,2.125,2.1248,2.1233,2.125,2.1231,2.1231,2.1233,2.1341,2.135,2.1217,2.1217,2.1217,2.1217,2.1217,2.1217,2.1119,2.109,2.1112,2.1088,2.1104,2.1091,2.1093,2.1098,2.1107,2.1093,2.1089,2.1107,2.1124,2.1123,2.1119,2.1127,2.1123,2.1096,2.111,2.121,2.1225,2.124,2.1248,2.1096,2.1095,2.1002,2.1001,2.1001]}]]